QPF
0.02 0.06 0.11 0.09 0.07 0.04 0.05 0.03 0.02 0.02 0.03 0.02 0.04 0.04 0.04 0.03 0.03 0.03 0.03 0.03 0.04 0.05 0.06 0.05 0.04 0.05 0.06 0.07 0.10 0.09 0.08 0.10 0.10 0.09 0.07 0.07 0.08 0.07 0.06 0.10 0.10 0.10 0.09
0.03 0.06 0.09 0.07 0.06 0.04 0.04 0.03 0.02 0.03 0.02 0.02 0.03 0.04 0.04 0.03 0.03 0.03 0.03 0.03 0.04 0.04 0.05 0.06 0.04 0.04 0.04 0.04 0.06 0.08 0.08 0.09 0.10 0.08 0.05 0.04 0.05 0.07 0.07 0.10 0.11 0.09 0.10
0.02 0.03 0.05 0.05 0.05 0.04 0.03 0.02 0.02 0.02 0.01 0.02 0.02 0.03 0.04 0.04 0.03 0.03 0.04 0.04 0.03 0.03 0.03 0.05 0.03 0.03 0.03 0.03 0.04 0.08 0.10 0.10 0.09 0.08 0.05 0.04 0.06 0.09 0.10 0.12 0.13 0.11 0.09
0.02 0.01 0.02 0.04 0.04 0.04 0.03 0.02 0.02 0.01 0.01 0.02 0.02 0.03 0.04 0.04 0.02 0.02 0.04 0.03 0.03 0.03 0.03 0.04 0.03 0.02 0.02 0.03 0.04 0.07 0.11 0.10 0.09 0.06 0.03 0.02 0.05 0.07 0.09 0.12 0.18 0.23 0.17
0.02 0.02 0.02 0.04 0.05 0.04 0.03 0.03 0.02 0.01 0.01 0.02 0.02 0.03 0.04 0.03 0.02 0.02 0.03 0.02 0.03 0.03 0.02 0.02 0.03 0.02 0.02 0.02 0.03 0.06 0.09 0.08 0.07 0.03 0.02 0.02 0.05 0.05 0.04 0.08 0.18 0.33 0.33
0.01 0.01 0.01 0.04 0.04 0.04 0.04 0.03 0.02 0.01 0.02 0.01 0.02 0.02 0.03 0.03 0.03 0.03 0.04 0.03 0.03 0.04 0.04 0.02 0.02 0.02 0.02 0.03 0.05 0.09 0.10 0.07 0.04 0.02 0.02 0.02 0.04 0.05 0.04 0.05 0.09 0.19 0.30
0.02 0.01 0.01 0.04 0.03 0.04 0.05 0.04 0.03 0.02 0.02 0.02 0.02 0.02 0.02 0.03 0.03 0.04 0.04 0.05 0.05 0.05 0.06 0.04 0.03 0.03 0.03 0.03 0.06 0.09 0.07 0.03 0.02 0.02 0.01 0.02 0.03 0.06 0.05 0.06 0.07 0.09 0.13
0.02 0.02 0.03 0.04 0.03 0.03 0.04 0.04 0.03 0.02 0.03 0.03 0.02 0.02 0.03 0.03 0.04 0.03 0.04 0.05 0.06 0.06 0.05 0.04 0.05 0.05 0.04 0.04 0.05 0.05 0.04 0.02 0.01 0.01 0.01 0.02 0.04 0.10 0.08 0.08 0.08 0.08 0.08
0.03 0.02 0.02 0.03 0.02 0.02 0.03 0.04 0.03 0.02 0.03 0.03 0.02 0.02 0.02 0.03 0.04 0.04 0.04 0.04 0.04 0.04 0.05 0.05 0.05 0.06 0.05 0.05 0.05 0.04 0.03 0.01 0.01 0.01 0.01 0.03 0.08 0.14 0.12 0.09 0.08 0.07 0.08
0.03 0.02 0.01 0.01 0.01 0.01 0.03 0.03 0.03 0.03 0.03 0.02 0.01 0.02 0.02 0.02 0.03 0.03 0.03 0.03 0.04 0.03 0.04 0.05 0.05 0.04 0.04 0.04 0.04 0.04 0.03 0.02 0.01 0.01 0.02 0.06 0.11 0.14 0.10 0.07 0.08 0.08 0.08
0.02 0.01 0.01 0.01 0.00 0.01 0.03 0.03 0.03 0.05 0.03 0.02 0.02 0.02 0.01 0.01 0.02 0.03 0.04 0.04 0.05 0.04 0.03 0.03 0.03 0.03 0.03 0.03 0.03 0.02 0.01 0.01 0.01 0.01 0.02 0.05 0.08 0.08 0.06 0.06 0.07 0.07 0.08
0.01 0.01 0.01 0.01 0.01 0.01 0.02 0.03 0.01 0.01 0.02 0.02 0.01 0.01 0.01 0.01 0.01 0.02 0.03 0.03 0.04 0.03 0.02 0.02 0.02 0.02 0.02 0.02 0.01 0.00 0.00 0.01 0.00 0.01 0.03 0.04 0.04 0.04 0.03 0.04 0.05 0.06 0.06
0.02 0.01 0.01 0.00 0.01 0.01 0.01 0.01 0.01 0.01 0.01 0.01 0.01 0.01 0.00 0.00 0.00 0.00 0.01 0.02 0.02 0.02 0.01 0.01 0.01 0.01 0.01 0.01 0.01 0.00 0.00 0.00 0.00 0.01 0.03 0.04 0.03 0.02 0.02 0.02 0.04 0.04 0.04
0.02 0.01 0.01 0.01 0.01 0.01 0.01 0.00 0.00 0.01 0.01 0.01 0.01 0.01 0.00 0.00 0.00 0.00 0.00 0.01 0.01 0.01 0.01 0.01 0.01 0.01 0.01 0.01 0.01 0.01 0.01 0.01 0.01 0.01 0.02 0.03 0.03 0.03 0.02 0.03 0.04 0.03 0.02
0.03 0.03 0.02 0.01 0.01 0.01 0.01 0.00 0.00 0.00 0.00 0.01 0.00 0.00 0.00 0.00 0.01 0.00 0.00 0.01 0.01 0.02 0.02 0.02 0.02 0.02 0.01 0.00 0.01 0.01 0.01 0.01 0.01 0.01 0.02 0.03 0.04 0.06 0.05 0.05 0.05 0.03 0.03
0.02 0.03 0.03 0.03 0.03 0.02 0.02 0.01 0.00 0.00 0.00 0.00 0.00 0.00 0.00 0.00 0.00 0.00 0.00 0.00 0.01 0.02 0.02 0.02 0.02 0.02 0.02 0.01 0.01 0.01 0.01 0.01 0.01 0.00 0.01 0.02 0.03 0.07 0.08 0.06 0.04 0.03 0.04
0.01 0.03 0.03 0.04 0.04 0.04 0.03 0.01 0.00 0.00 0.00 0.00 0.00 0.00 0.00 0.00 0.00 0.01 0.01 0.00 0.00 0.01 0.01 0.01 0.01 0.01 0.01 0.00 0.00 0.00 0.00 0.00 0.00 0.00 0.00 0.00 0.01 0.04 0.06 0.04 0.04 0.03 0.03
0.02 0.02 0.03 0.04 0.04 0.03 0.03 0.02 0.02 0.01 0.00 0.00 0.00 0.00 0.00 0.00 0.00 0.01 0.01 0.01 0.01 0.01 0.01 0.01 0.00 0.00 0.00 0.00 0.00 0.00 0.00 0.00 0.00 0.00 0.00 0.00 0.00 0.01 0.02 0.03 0.03 0.03 0.02
0.02 0.03 0.03 0.04 0.04 0.03 0.03 0.04 0.03 0.02 0.01 0.01 0.02 0.02 0.01 0.01 0.01 0.00 0.01 0.01 0.01 0.00 0.00 0.00 0.00 0.00 0.00 0.00 0.00 0.00 0.00 0.00 0.00 0.00 0.00 0.00 0.00 0.00 0.01 0.01 0.01 0.02 0.02
0.02 0.03 0.03 0.03 0.03 0.04 0.04 0.04 0.03 0.02 0.01 0.01 0.01 0.02 0.03 0.03 0.02 0.02 0.01 0.01 0.01 0.01 0.01 0.01 0.01 0.01 0.01 0.01 0.00 0.00 0.00 0.00 0.00 0.00 0.00 0.00 0.00 0.00 0.00 0.00 0.00 0.01 0.04
0.02 0.03 0.03 0.03 0.03 0.03 0.03 0.03 0.04 0.03 0.02 0.01 0.01 0.01 0.02 0.02 0.02 0.02 0.02 0.01 0.01 0.01 0.01 0.01 0.01 0.02 0.02 0.01 0.01 0.01 0.01 0.00 0.00 0.00 0.00 0.00 0.00 0.00 0.00 0.00 0.00 0.02 0.07
0.01 0.02 0.02 0.02 0.02 0.02 0.03 0.03 0.05 0.05 0.04 0.03 0.02 0.02 0.01 0.01 0.01 0.01 0.02 0.01 0.01 0.01 0.01 0.01 0.01 0.01 0.02 0.02 0.01 0.01 0.01 0.01 0.00 0.00 0.00 0.00 0.00 0.00 0.00 0.00 0.01 0.02 0.12
0.02 0.01 0.02 0.02 0.02 0.03 0.03 0.04 0.05 0.05 0.04 0.04 0.03 0.03 0.02 0.01 0.01 0.01 0.01 0.01 0.01 0.01 0.01 0.01 0.01 0.01 0.01 0.01 0.02 0.02 0.01 0.01 0.01 0.01 0.00 0.00 0.00 0.00 0.00 0.00 0.02 0.04 0.09
0.02 0.02 0.02 0.02 0.02 0.03 0.03 0.04 0.05 0.05 0.05 0.04 0.04 0.03 0.02 0.02 0.02 0.01 0.01 0.01 0.01 0.01 0.01 0.01 0.01 0.01 0.01 0.01 0.01 0.01 0.01 0.01 0.02 0.02 0.01 0.01 0.00 0.00 0.00 0.01 0.02 0.05 0.07
0.02 0.01 0.01 0.01 0.02 0.03 0.03 0.05 0.06 0.06 0.06 0.05 0.05 0.04 0.03 0.02 0.01 0.00 0.00 0.00 0.01 0.01 0.01 0.01 0.01 0.00 0.00 0.00 0.00 0.01 0.01 0.01 0.02 0.02 0.02 0.02 0.02 0.00 0.00 0.00 0.01 0.04 0.07
0.01 0.00 0.01 0.01 0.01 0.02 0.02 0.03 0.05 0.06 0.06 0.05 0.04 0.03 0.03 0.02 0.01 0.01 0.01 0.01 0.01 0.01 0.01 0.01 0.01 0.01 0.00 0.01 0.01 0.01 0.01 0.02 0.02 0.02 0.02 0.02 0.02 0.01 0.00 0.00 0.00 0.02 0.05
MSLP
1015.88 1015.14 1014.43 1013.83 1013.41 1013.19 1013.14 1013.21 1013.32 1013.42 1013.46 1013.42 1013.33 1013.22 1013.13 1013.07 1013.07 1013.09 1013.14 1013.17 1013.18 1013.17 1013.12 1013.06 1013.01 1012.95 1012.90 1012.85 1012.79 1012.73 1012.67 1012.61 1012.56 1012.50 1012.41 1012.24 1011.96 1011.53 1010.95 1010.26 1009.53 1008.88 1008.41
1016.16 1015.45 1014.77 1014.20 1013.81 1013.60 1013.57 1013.64 1013.75 1013.85 1013.89 1013.86 1013.79 1013.70 1013.62 1013.58 1013.56 1013.57 1013.59 1013.59 1013.56 1013.51 1013.44 1013.37 1013.29 1013.21 1013.13 1013.05 1012.96 1012.88 1012.81 1012.76 1012.71 1012.63 1012.50 1012.23 1011.80 1011.16 1010.33 1009.38 1008.40 1007.54 1006.93
1016.38 1015.72 1015.08 1014.56 1014.21 1014.04 1014.02 1014.09 1014.21 1014.30 1014.34 1014.32 1014.26 1014.19 1014.11 1014.06 1014.02 1014.00 1013.97 1013.92 1013.85 1013.77 1013.67 1013.58 1013.48 1013.39 1013.29 1013.20 1013.11 1013.02 1012.95 1012.91 1012.86 1012.77 1012.58 1012.22 1011.64 1010.81 1009.75 1008.55 1007.34 1006.31 1005.59
1016.54 1015.95 1015.38 1014.92 1014.62 1014.49 1014.49 1014.57 1014.68 1014.76 1014.79 1014.77 1014.72 1014.64 1014.56 1014.49 1014.42 1014.35 1014.27 1014.17 1014.06 1013.94 1013.83 1013.72 1013.63 1013.54 1013.45 1013.36 1013.27 1013.19 1013.14 1013.10 1013.05 1012.95 1012.72 1012.29 1011.58 1010.60 1009.36 1007.97 1006.61 1005.44 1004.64
1016.66 1016.15 1015.66 1015.28 1015.05 1014.96 1014.98 1015.06 1015.15 1015.21 1015.23 1015.19 1015.13 1015.04 1014.95 1014.86 1014.75 1014.64 1014.50 1014.36 1014.21 1014.07 1013.96 1013.87 1013.79 1013.73 1013.66 1013.59 1013.52 1013.45 1013.41 1013.38 1013.34 1013.22 1012.97 1012.48 1011.70 1010.63 1009.29 1007.81 1006.35 1005.12 1004.30
1016.78 1016.35 1015.96 1015.67 1015.50 1015.45 1015.49 1015.55 1015.61 1015.65 1015.63 1015.58 1015.51 1015.41 1015.31 1015.20 1015.07 1014.91 1014.74 1014.56 1014.39 1014.24 1014.14 1014.07 1014.03 1014.01 1013.98 1013.94 1013.89 1013.83 1013.80 1013.77 1013.72 1013.60 1013.33 1012.83 1012.04 1010.95 1009.60 1008.12 1006.67 1005.45 1004.64
1016.93 1016.59 1016.30 1016.09 1015.99 1015.98 1016.01 1016.06 1016.08 1016.07 1016.03 1015.96 1015.88 1015.79 1015.69 1015.57 1015.43 1015.25 1015.05 1014.84 1014.65 1014.51 1014.43 1014.40 1014.40 1014.43 1014.44 1014.43 1014.40 1014.35 1014.30 1014.26 1014.20 1014.07 1013.80 1013.32 1012.57 1011.54 1010.27 1008.88 1007.53 1006.40 1005.65
1017.16 1016.89 1016.69 1016.57 1016.53 1016.54 1016.56 1016.57 1016.56 1016.51 1016.44 1016.36 1016.29 1016.22 1016.14 1016.03 1015.89 1015.71 1015.49 1015.26 1015.07 1014.93 1014.86 1014.87 1014.92 1014.99 1015.05 1015.06 1015.04 1014.98 1014.92 1014.84 1014.75 1014.60 1014.34 1013.90 1013.23 1012.32 1011.21 1009.99 1008.80 1007.81 1007.16
1017.44 1017.26 1017.15 1017.10 1017.11 1017.13 1017.14 1017.12 1017.06 1016.98 1016.89 1016.82 1016.77 1016.74 1016.70 1016.63 1016.50 1016.32 1016.09 1015.85 1015.64 1015.50 1015.45 1015.48 1015.57 1015.68 1015.77 1015.80 1015.78 1015.71 1015.60 1015.48 1015.34 1015.17 1014.91 1014.53 1013.96 1013.21 1012.29 1011.29 1010.31 1009.50 1008.96
1017.77 1017.68 1017.65 1017.67 1017.72 1017.75 1017.75 1017.70 1017.61 1017.50 1017.41 1017.36 1017.35 1017.36 1017.37 1017.35 1017.25 1017.07 1016.83 1016.58 1016.35 1016.19 1016.13 1016.17 1016.29 1016.43 1016.54 1016.60 1016.57 1016.47 1016.32 1016.14 1015.95 1015.74 1015.49 1015.16 1014.70 1014.10 1013.39 1012.62 1011.86 1011.24 1010.82
1018.11 1018.10 1018.16 1018.25 1018.34 1018.39 1018.38 1018.30 1018.18 1018.06 1017.98 1017.95 1017.99 1018.07 1018.13 1018.15 1018.08 1017.91 1017.67 1017.38 1017.13 1016.94 1016.87 1016.91 1017.03 1017.19 1017.33 1017.40 1017.37 1017.26 1017.07 1016.84 1016.60 1016.35 1016.08 1015.78 1015.42 1014.97 1014.45 1013.88 1013.33 1012.87 1012.55
1018.41 1018.50 1018.64 1018.81 1018.94 1019.01 1018.99 1018.90 1018.77 1018.65 1018.57 1018.58 1018.67 1018.80 1018.92 1018.97 1018.93 1018.77 1018.51 1018.21 1017.92 1017.70 1017.60 1017.63 1017.75 1017.93 1018.09 1018.18 1018.17 1018.05 1017.84 1017.58 1017.29 1017.00 1016.72 1016.44 1016.14 1015.80 1015.43 1015.03 1014.64 1014.31 1014.07
1018.64 1018.83 1019.06 1019.30 1019.48 1019.58 1019.57 1019.47 1019.34 1019.22 1019.16 1019.20 1019.32 1019.49 1019.65 1019.74 1019.72 1019.57 1019.30 1018.98 1018.66 1018.42 1018.30 1018.31 1018.43 1018.62 1018.81 1018.93 1018.95 1018.85 1018.64 1018.36 1018.05 1017.73 1017.44 1017.16 1016.90 1016.64 1016.37 1016.09 1015.81 1015.57 1015.37
1018.78 1019.07 1019.39 1019.70 1019.93 1020.06 1020.06 1019.98 1019.85 1019.74 1019.69 1019.75 1019.89 1020.09 1020.27 1020.39 1020.39 1020.25 1019.99 1019.66 1019.33 1019.08 1018.94 1018.95 1019.08 1019.28 1019.50 1019.66 1019.72 1019.66 1019.49 1019.22 1018.91 1018.58 1018.27 1018.00 1017.75 1017.53 1017.31 1017.10 1016.89 1016.69 1016.50
1018.84 1019.21 1019.61 1019.98 1020.26 1020.42 1020.46 1020.39 1020.28 1020.18 1020.14 1020.20 1020.35 1020.55 1020.75 1020.88 1020.90 1020.79 1020.55 1020.25 1019.94 1019.69 1019.56 1019.57 1019.70 1019.93 1020.17 1020.38 1020.49 1020.48 1020.36 1020.13 1019.84 1019.53 1019.23 1018.95 1018.70 1018.49 1018.29 1018.10 1017.91 1017.72 1017.53
1018.83 1019.26 1019.71 1020.13 1020.45 1020.66 1020.73 1020.70 1020.61 1020.53 1020.50 1020.56 1020.70 1020.89 1021.08 1021.22 1021.27 1021.19 1021.00 1020.75 1020.49 1020.28 1020.17 1020.20 1020.34 1020.58 1020.85 1021.09 1021.25 1021.31 1021.24 1021.08 1020.83 1020.55 1020.26 1019.99 1019.74 1019.52 1019.32 1019.12 1018.92 1018.72 1018.50
1018.79 1019.24 1019.72 1020.16 1020.52 1020.76 1020.89 1020.91 1020.87 1020.81 1020.80 1020.85 1020.96 1021.13 1021.31 1021.46 1021.53 1021.50 1021.38 1021.21 1021.02 1020.87 1020.81 1020.86 1021.01 1021.25 1021.53 1021.79 1021.99 1022.10 1022.10 1022.00 1021.81 1021.57 1021.31 1021.05 1020.80 1020.57 1020.35 1020.14 1019.92 1019.69 1019.45
1018.73 1019.17 1019.64 1020.09 1020.47 1020.77 1020.95 1021.04 1021.06 1021.05 1021.05 1021.10 1021.19 1021.33 1021.49 1021.64 1021.74 1021.77 1021.73 1021.65 1021.56 1021.49 1021.48 1021.55 1021.71 1021.95 1022.22 1022.48 1022.70 1022.84 1022.89 1022.85 1022.73 1022.54 1022.32 1022.07 1021.83 1021.59 1021.35 1021.11 1020.87 1020.62 1020.35
1018.65 1019.06 1019.50 1019.94 1020.34 1020.68 1020.94 1021.11 1021.22 1021.27 1021.30 1021.35 1021.43 1021.54 1021.68 1021.82 1021.94 1022.03 1022.08 1022.10 1022.10 1022.12 1022.16 1022.27 1022.43 1022.64 1022.89 1023.13 1023.35 1023.51 1023.60 1023.61 1023.53 1023.40 1023.21 1022.99 1022.76 1022.51 1022.25 1022.00 1021.73 1021.46 1021.17
1018.54 1018.90 1019.30 1019.73 1020.15 1020.54 1020.88 1021.15 1021.35 1021.48 1021.57 1021.64 1021.70 1021.79 1021.89 1022.02 1022.17 1022.30 1022.43 1022.54 1022.64 1022.74 1022.84 1022.97 1023.12 1023.31 1023.52 1023.73 1023.93 1024.09 1024.20 1024.25 1024.22 1024.13 1023.98 1023.78 1023.55 1023.30 1023.04 1022.76 1022.48 1022.19 1021.90
1018.36 1018.68 1019.04 1019.45 1019.89 1020.34 1020.77 1021.15 1021.46 1021.69 1021.84 1021.93 1022.00 1022.06 1022.14 1022.26 1022.41 1022.58 1022.77 1022.96 1023.14 1023.31 1023.46 1023.61 1023.76 1023.92 1024.09 1024.27 1024.44 1024.60 1024.72 1024.79 1024.80 1024.75 1024.63 1024.45 1024.23 1023.97 1023.69 1023.40 1023.10 1022.80 1022.50
1018.08 1018.38 1018.72 1019.11 1019.58 1020.08 1020.60 1021.09 1021.51 1021.84 1022.06 1022.20 1022.28 1022.33 1022.39 1022.49 1022.64 1022.83 1023.07 1023.32 1023.57 1023.79 1023.99 1024.16 1024.31 1024.45 1024.59 1024.73 1024.89 1025.04 1025.17 1025.26 1025.31 1025.28 1025.19 1025.03 1024.81 1024.54 1024.25 1023.94 1023.63 1023.31 1023.00
1017.65 1017.96 1018.29 1018.69 1019.18 1019.74 1020.33 1020.92 1021.45 1021.87 1022.18 1022.37 1022.47 1022.53 1022.58 1022.66 1022.81 1023.02 1023.29 1023.58 1023.88 1024.15 1024.39 1024.58 1024.73 1024.87 1024.99 1025.13 1025.27 1025.43 1025.57 1025.69 1025.76 1025.77 1025.69 1025.54 1025.33 1025.05 1024.74 1024.41 1024.08 1023.75 1023.42
1017.06 1017.40 1017.75 1018.16 1018.67 1019.27 1019.93 1020.60 1021.22 1021.74 1022.13 1022.37 1022.51 1022.58 1022.64 1022.73 1022.88 1023.10 1023.39 1023.72 1024.06 1024.37 1024.65 1024.87 1025.04 1025.18 1025.31 1025.45 1025.60 1025.77 1025.93 1026.08 1026.18 1026.21 1026.16 1026.02 1025.81 1025.52 1025.20 1024.85 1024.49 1024.14 1023.80
1016.31 1016.70 1017.08 1017.51 1018.04 1018.67 1019.37 1020.10 1020.79 1021.38 1021.84 1022.15 1022.34 1022.45 1022.54 1022.64 1022.81 1023.05 1023.37 1023.74 1024.11 1024.47 1024.77 1025.03 1025.22 1025.39 1025.53 1025.69 1025.86 1026.05 1026.25 1026.42 1026.55 1026.61 1026.58 1026.45 1026.24 1025.96 1025.62 1025.26 1024.89 1024.52 1024.16
1015.43 1015.88 1016.29 1016.75 1017.29 1017.93 1018.65 1019.41 1020.15 1020.80 1021.32 1021.70 1021.95 1022.11 1022.25 1022.40 1022.60 1022.88 1023.24 1023.64 1024.06 1024.45 1024.79 1025.08 1025.31 1025.50 1025.67 1025.85 1026.05 1026.26 1026.48 1026.68 1026.84 1026.92 1026.91 1026.81 1026.61 1026.33 1026.00 1025.63 1025.25 1024.86 1024.48
Thickness
5754 5758 5759 5760 5761 5761 5761 5761 5761 5761 5761 5761 5761 5761 5761 5761 5761 5762 5762 5763 5763 5763 5762 5762 5762 5762 5762 5762 5763 5762 5762 5762 5762 5762 5762 5763 5763 5764 5764 5764 5764 5764 5765
5756 5757 5758 5759 5759 5759 5759 5759 5759 5759 5759 5759 5759 5759 5759 5759 5759 5759 5759 5759 5759 5759 5759 5759 5759 5759 5759 5759 5759 5759 5759 5758 5758 5758 5759 5759 5760 5761 5762 5762 5762 5762 5762
5755 5755 5756 5757 5757 5757 5757 5756 5756 5757 5757 5757 5757 5757 5757 5756 5756 5756 5756 5756 5756 5756 5755 5755 5755 5756 5756 5756 5756 5755 5755 5755 5755 5755 5755 5756 5757 5758 5759 5759 5759 5759 5760
5753 5754 5754 5754 5754 5754 5754 5754 5754 5753 5753 5754 5754 5754 5754 5753 5753 5752 5752 5752 5752 5752 5752 5752 5752 5752 5752 5752 5752 5752 5751 5751 5751 5751 5751 5752 5753 5755 5756 5756 5756 5757 5758
5752 5751 5752 5752 5752 5752 5751 5751 5750 5750 5750 5750 5751 5751 5750 5750 5749 5749 5749 5748 5748 5748 5748 5748 5748 5748 5748 5748 5748 5748 5747 5747 5747 5747 5747 5748 5749 5751 5752 5753 5754 5755 5757
5749 5749 5749 5749 5749 5749 5748 5748 5747 5747 5746 5746 5746 5746 5746 5746 5745 5745 5745 5744 5744 5744 5744 5744 5744 5744 5744 5744 5744 5744 5744 5743 5742 5742 5743 5744 5746 5747 5748 5749 5750 5751 5753
5746 5746 5746 5746 5746 5745 5745 5744 5743 5743 5742 5742 5742 5742 5742 5741 5741 5741 5741 5741 5741 5740 5740 5740 5740 5740 5740 5739 5739 5739 5739 5739 5738 5739 5739 5740 5742 5743 5745 5745 5746 5746 5747
5744 5743 5742 5743 5742 5742 5741 5740 5739 5739 5738 5737 5737 5737 5737 5737 5737 5737 5737 5737 5737 5736 5736 5736 5736 5736 5735 5735 5735 5735 5735 5735 5734 5734 5735 5736 5738 5740 5741 5741 5741 5742 5742
5741 5740 5739 5738 5738 5737 5737 5736 5735 5734 5734 5733 5733 5733 5732 5732 5733 5733 5733 5733 5733 5732 5732 5732 5732 5731 5731 5731 5731 5731 5730 5730 5730 5731 5732 5733 5734 5736 5736 5737 5737 5738 5738
5737 5736 5735 5734 5734 5733 5733 5732 5731 5730 5730 5729 5728 5728 5727 5727 5728 5728 5728 5728 5728 5728 5728 5728 5727 5727 5727 5726 5726 5726 5726 5725 5725 5726 5727 5729 5730 5731 5732 5732 5732 5733 5734
5732 5732 5731 5731 5730 5729 5729 5727 5727 5726 5725 5724 5724 5724 5723 5723 5722 5722 5722 5723 5723 5723 5723 5723 5722 5722 5722 5721 5721 5721 5721 5721 5721 5722 5723 5724 5726 5727 5727 5728 5728 5728 5729
5727 5727 5728 5727 5726 5725 5724 5723 5722 5721 5720 5720 5719 5719 5718 5718 5717 5717 5717 5717 5718 5718 5717 5717 5717 5717 5716 5716 5715 5715 5716 5716 5716 5717 5718 5720 5722 5723 5723 5723 5724 5724 5724
5725 5725 5724 5723 5722 5721 5720 5719 5718 5717 5716 5715 5714 5714 5714 5713 5713 5712 5712 5712 5712 5712 5712 5712 5711 5711 5711 5711 5710 5710 5711 5711 5711 5712 5713 5716 5717 5718 5719 5719 5719 5719 5719
5723 5722 5722 5721 5720 5718 5717 5716 5714 5713 5712 5711 5710 5709 5709 5708 5708 5707 5707 5707 5707 5707 5706 5706 5706 5706 5706 5706 5705 5705 5705 5705 5706 5706 5708 5710 5712 5713 5714 5714 5714 5714 5714
5721 5720 5719 5718 5717 5715 5714 5712 5711 5709 5708 5707 5706 5705 5704 5704 5703 5703 5702 5702 5702 5702 5702 5701 5701 5701 5701 5701 5701 5701 5701 5701 5701 5701 5702 5704 5706 5707 5708 5709 5709 5709 5709
5719 5718 5717 5716 5715 5713 5711 5709 5708 5706 5705 5703 5702 5701 5701 5700 5699 5698 5698 5698 5697 5697 5697 5697 5696 5696 5695 5695 5695 5695 5695 5695 5696 5696 5697 5698 5699 5701 5702 5703 5703 5703 5704
5717 5717 5715 5714 5712 5710 5708 5707 5705 5703 5702 5700 5698 5698 5697 5696 5696 5695 5694 5693 5693 5693 5692 5692 5691 5691 5691 5690 5690 5690 5690 5690 5690 5691 5691 5692 5693 5694 5695 5696 5697 5698 5698
5715 5714 5713 5712 5709 5707 5705 5704 5702 5701 5699 5697 5696 5694 5694 5693 5692 5691 5690 5689 5689 5689 5688 5687 5686 5685 5684 5684 5684 5684 5684 5685 5685 5685 5685 5686 5687 5687 5688 5689 5690 5692 5692
5712 5711 5709 5708 5706 5704 5702 5701 5699 5698 5696 5694 5693 5692 5691 5690 5689 5688 5687 5686 5685 5685 5684 5683 5681 5680 5679 5679 5679 5679 5679 5679 5679 5680 5680 5680 5680 5681 5682 5683 5684 5685 5686
5708 5707 5705 5704 5702 5701 5699 5697 5695 5694 5693 5691 5690 5689 5688 5687 5686 5685 5683 5682 5682 5680 5679 5678 5676 5675 5674 5674 5675 5674 5673 5674 5674 5674 5674 5674 5675 5675 5676 5676 5677 5679 5679
5703 5702 5700 5699 5697 5696 5694 5692 5690 5688 5688 5688 5687 5686 5685 5684 5683 5682 5680 5679 5678 5676 5675 5674 5672 5671 5669 5669 5668 5667 5668 5669 5669 5669 5669 5669 5669 5670 5670 5671 5671 5672 5673
5698 5697 5696 5695 5693 5692 5691 5689 5687 5686 5685 5684 5684 5683 5682 5681 5680 5679 5677 5675 5674 5672 5671 5670 5668 5666 5665 5664 5662 5660 5658 5660 5662 5664 5663 5663 5663 5664 5665 5665 5666 5667 5667
5693 5692 5692 5690 5689 5688 5687 5686 5684 5682 5680 5679 5678 5678 5677 5677 5676 5675 5674 5673 5671 5669 5667 5666 5665 5663 5660 5659 5659 5656 5652 5650 5652 5655 5656 5657 5657 5658 5658 5659 5660 5661 5662
5689 5688 5687 5685 5684 5683 5682 5681 5679 5676 5674 5673 5673 5673 5673 5673 5672 5672 5671 5670 5668 5666 5664 5663 5662 5660 5658 5655 5654 5653 5651 5650 5646 5646 5649 5650 5651 5651 5651 5653 5654 5655 5656
5686 5684 5683 5681 5679 5678 5677 5677 5675 5673 5671 5669 5669 5669 5669 5669 5668 5668 5667 5666 5664 5663 5661 5660 5659 5657 5655 5652 5650 5648 5646 5644 5644 5642 5640 5642 5644 5645 5645 5646 5647 5648 5649
5681 5680 5678 5676 5674 5673 5672 5671 5670 5669 5666 5665 5664 5664 5664 5664 5663 5663 5663 5662 5661 5659 5658 5656 5655 5653 5651 5649 5647 5645 5643 5641 5639 5637 5635 5634 5635 5637 5639 5640 5640 5641 5643